Time,TemperatureF,DewpointF,PressureIn,WindDirection,WindDirectionDegrees,WindSpeedMPH,WindSpeedGustMPH,Humidity,HourlyPrecipIn,Conditions,Clouds,dailyrainin,SoftwareType,DateUTC
2013-06-05 00:01:00,77.4,77.0,30.02,East,90,2.2,3.1,99,0.00,,,0.00,meteobridge,2013-06-05 04:01:00,
2013-06-05 00:02:00,77.4,77.0,30.03,East,90,1.6,2.2,99,0.00,,,0.00,meteobridge,2013-06-05 04:02:00,
2013-06-05 00:03:00,77.4,77.0,30.02,NE,45,0.7,2.2,99,0.00,,,0.00,meteobridge,2013-06-05 04:03:00,
2013-06-05 00:08:00,77.4,77.0,30.03,East,90,2.2,2.2,99,0.00,,,0.00,meteobridge,2013-06-05 04:08:00,
2013-06-05 00:13:00,77.2,76.8,30.03,East,90,3.1,3.1,99,0.00,,,0.00,meteobridge,2013-06-05 04:13:00,
2013-06-05 00:18:00,77.2,76.8,30.02,ENE,68,3.1,3.1,99,0.00,,,0.00,meteobridge,2013-06-05 04:18:00,
2013-06-05 00:23:00,77.2,76.8,30.03,East,90,5.4,5.4,99,0.00,,,0.00,meteobridge,2013-06-05 04:23:00,
2013-06-05 00:28:00,77.2,76.8,30.03,ENE,68,2.2,3.1,99,0.00,,,0.00,meteobridge,2013-06-05 04:28:00,
2013-06-05 00:34:00,77.0,76.6,30.02,East,90,2.2,3.1,99,0.00,,,0.00,meteobridge,2013-06-05 04:34:00,
2013-06-05 00:39:00,77.0,76.6,30.02,East,90,3.1,3.8,99,0.00,,,0.00,meteobridge,2013-06-05 04:39:00,
2013-06-05 00:44:00,77.0,76.6,30.02,East,90,3.8,3.8,99,0.00,,,0.00,meteobridge,2013-06-05 04:44:00,
2013-06-05 00:49:00,77.0,76.6,30.02,NE,45,4.5,4.5,99,0.00,,,0.00,meteobridge,2013-06-05 04:49:00,
2013-06-05 00:54:00,76.8,76.5,30.02,East,90,3.1,3.8,99,0.00,,,0.00,meteobridge,2013-06-05 04:54:00,
2013-06-05 00:59:00,76.8,76.5,30.02,East,90,3.8,3.8,99,0.00,,,0.00,meteobridge,2013-06-05 04:59:00,
2013-06-05 01:05:00,76.8,76.5,30.02,East,90,3.1,5.4,99,0.00,,,0.00,meteobridge,2013-06-05 05:05:00,
2013-06-05 01:10:00,76.6,76.3,30.02,East,90,4.5,4.5,99,0.00,,,0.00,meteobridge,2013-06-05 05:10:00,
2013-06-05 01:15:00,76.6,76.3,30.01,East,90,5.4,5.4,99,0.00,,,0.00,meteobridge,2013-06-05 05:15:00,
2013-06-05 01:20:00,76.6,76.3,30.01,East,90,3.1,4.5,99,0.00,,,0.00,meteobridge,2013-06-05 05:20:00,
2013-06-05 01:25:00,76.5,76.1,30.01,East,90,4.5,4.5,99,0.00,,,0.00,meteobridge,2013-06-05 05:25:00,
2013-06-05 01:30:00,76.5,76.1,30.01,East,90,3.1,3.8,99,0.00,,,0.00,meteobridge,2013-06-05 05:30:00,
2013-06-05 01:35:00,76.5,76.1,30.01,East,90,4.5,5.4,99,0.00,,,0.00,meteobridge,2013-06-05 05:35:00,
2013-06-05 01:41:00,76.3,75.9,30.00,NE,45,2.2,3.8,99,0.00,,,0.00,meteobridge,2013-06-05 05:41:00,
2013-06-05 01:46:00,76.3,75.9,30.01,South,180,3.1,3.1,99,0.00,,,0.00,meteobridge,2013-06-05 05:46:00,
2013-06-05 01:51:00,76.3,75.9,30.01,East,90,5.4,5.4,99,0.00,,,0.00,meteobridge,2013-06-05 05:51:00,
2013-06-05 01:56:00,76.1,75.7,30.01,SE,135,3.1,3.8,99,0.00,,,0.00,meteobridge,2013-06-05 05:56:00,
2013-06-05 02:01:00,76.1,75.7,30.01,East,90,3.8,3.8,99,0.00,,,0.00,meteobridge,2013-06-05 06:01:00,
2013-06-05 02:06:00,76.1,75.7,30.00,NNE,23,3.1,5.4,99,0.00,,,0.00,meteobridge,2013-06-05 06:06:00,
2013-06-05 02:12:00,76.1,75.7,30.00,SE,135,3.8,4.5,99,0.00,,,0.00,meteobridge,2013-06-05 06:12:00,
2013-06-05 02:17:00,76.1,75.7,29.99,SE,135,2.2,4.5,99,0.00,,,0.00,meteobridge,2013-06-05 06:17:00,
2013-06-05 02:22:00,75.9,75.6,29.99,East,90,3.8,4.5,99,0.00,,,0.00,meteobridge,2013-06-05 06:22:00,
2013-06-05 02:27:00,75.9,75.6,29.99,East,90,4.5,4.5,99,0.00,,,0.00,meteobridge,2013-06-05 06:27:00,
2013-06-05 02:32:00,75.9,75.6,29.99,SE,135,3.1,4.5,99,0.00,,,0.00,meteobridge,2013-06-05 06:32:00,
2013-06-05 02:37:00,75.9,75.6,29.98,NE,45,3.8,4.5,99,0.00,,,0.00,meteobridge,2013-06-05 06:37:00,
2013-06-05 02:43:00,75.9,75.6,29.98,East,90,3.8,3.8,99,0.00,,,0.00,meteobridge,2013-06-05 06:43:00,
2013-06-05 02:48:00,75.9,75.6,29.99,East,90,5.4,5.4,99,0.00,,,0.00,meteobridge,2013-06-05 06:48:00,
2013-06-05 02:53:00,75.9,75.6,29.98,East,90,5.4,5.4,99,0.00,,,0.00,meteobridge,2013-06-05 06:53:00,
2013-06-05 02:58:00,75.9,75.6,29.98,East,90,4.5,4.5,99,0.00,,,0.00,meteobridge,2013-06-05 06:58:00,
2013-06-05 03:03:00,75.9,75.6,29.98,SE,135,3.8,4.5,99,0.00,,,0.00,meteobridge,2013-06-05 07:03:00,
2013-06-05 03:08:00,75.7,75.4,29.98,SE,135,3.8,6.0,99,0.00,,,0.00,meteobridge,2013-06-05 07:08:00,
2013-06-05 03:14:00,75.7,75.4,29.98,East,90,5.4,5.4,99,0.00,,,0.00,meteobridge,2013-06-05 07:14:00,
2013-06-05 03:19:00,75.7,75.4,29.98,SE,135,3.8,4.5,99,0.00,,,0.00,meteobridge,2013-06-05 07:19:00,
2013-06-05 03:24:00,75.7,75.4,29.98,East,90,5.4,5.4,99,0.00,,,0.00,meteobridge,2013-06-05 07:24:00,
2013-06-05 03:29:00,75.7,75.4,29.97,South,180,3.1,3.8,99,0.00,,,0.00,meteobridge,2013-06-05 07:29:00,
2013-06-05 03:34:00,75.7,75.4,29.98,East,90,3.1,4.5,99,0.00,,,0.00,meteobridge,2013-06-05 07:34:00,
2013-06-05 03:39:00,75.7,75.4,29.98,East,90,4.5,4.5,99,0.00,,,0.00,meteobridge,2013-06-05 07:39:00,
2013-06-05 03:45:00,75.7,75.4,29.98,South,180,1.6,4.5,99,0.00,,,0.00,meteobridge,2013-06-05 07:45:00,
2013-06-05 03:50:00,75.6,75.2,29.97,ESE,113,6.0,6.0,99,0.00,,,0.00,meteobridge,2013-06-05 07:50:00,
2013-06-05 03:55:00,75.6,75.2,29.97,SE,135,4.5,6.9,99,0.00,,,0.00,meteobridge,2013-06-05 07:55:00,
2013-06-05 04:00:00,75.6,75.2,29.97,SE,135,5.4,6.9,99,0.00,,,0.00,meteobridge,2013-06-05 08:00:00,
2013-06-05 04:05:00,75.6,75.2,29.97,SE,135,4.5,4.5,99,0.00,,,0.00,meteobridge,2013-06-05 08:05:00,
2013-06-05 04:10:00,75.4,75.0,29.97,East,90,5.4,5.4,99,0.00,,,0.00,meteobridge,2013-06-05 08:10:00,
2013-06-05 04:16:00,75.4,75.0,29.96,East,90,3.8,5.4,99,0.00,,,0.00,meteobridge,2013-06-05 08:16:00,
2013-06-05 04:21:00,75.4,75.0,29.96,SE,135,4.5,6.0,99,0.00,,,0.00,meteobridge,2013-06-05 08:21:00,
2013-06-05 04:26:00,75.4,75.0,29.96,East,90,6.9,6.9,99,0.00,,,0.00,meteobridge,2013-06-05 08:26:00,
2013-06-05 04:31:00,75.4,75.0,29.96,SSE,158,3.1,4.5,99,0.00,,,0.00,meteobridge,2013-06-05 08:31:00,
2013-06-05 04:36:00,75.4,75.0,29.96,SE,135,6.0,6.0,99,0.00,,,0.00,meteobridge,2013-06-05 08:36:00,
2013-06-05 04:41:00,75.4,75.0,29.96,SE,135,4.5,4.5,99,0.00,,,0.00,meteobridge,2013-06-05 08:41:00,
2013-06-05 04:47:00,75.4,75.0,29.96,East,90,5.4,6.0,99,0.00,,,0.00,meteobridge,2013-06-05 08:47:00,
2013-06-05 04:52:00,75.4,75.0,29.96,East,90,3.8,5.4,99,0.00,,,0.00,meteobridge,2013-06-05 08:52:00,
2013-06-05 04:57:00,75.6,75.2,29.95,East,90,3.8,3.8,99,0.00,,,0.00,meteobridge,2013-06-05 08:57:00,
2013-06-05 05:02:00,75.6,75.2,29.95,SSE,158,3.1,3.8,99,0.00,,,0.00,meteobridge,2013-06-05 09:02:00,
2013-06-05 05:07:00,75.4,75.0,29.95,East,90,3.1,3.8,99,0.00,,,0.00,meteobridge,2013-06-05 09:07:00,
2013-06-05 05:12:00,75.4,75.0,29.95,East,90,2.2,5.4,99,0.00,,,0.00,meteobridge,2013-06-05 09:12:00,
2013-06-05 05:17:00,75.4,75.0,29.95,ESE,113,2.2,3.8,99,0.00,,,0.00,meteobridge,2013-06-05 09:17:00,
2013-06-05 05:23:00,75.4,75.0,29.95,East,90,3.8,5.4,99,0.00,,,0.00,meteobridge,2013-06-05 09:23:00,
2013-06-05 05:28:00,75.4,75.0,29.95,East,90,3.1,3.1,99,0.00,,,0.00,meteobridge,2013-06-05 09:28:00,
2013-06-05 05:33:00,75.4,75.0,29.95,East,90,3.8,3.8,99,0.00,,,0.00,meteobridge,2013-06-05 09:33:00,
2013-06-05 05:38:00,75.4,75.0,29.95,SSE,158,3.1,3.8,99,0.00,,,0.00,meteobridge,2013-06-05 09:38:00,
2013-06-05 05:43:00,75.4,75.0,29.95,SE,135,4.5,4.5,99,0.00,,,0.00,meteobridge,2013-06-05 09:43:00,
2013-06-05 05:48:00,75.4,75.0,29.95,SE,135,3.8,3.8,99,0.00,,,0.00,meteobridge,2013-06-05 09:48:00,
2013-06-05 05:54:00,75.4,75.0,29.95,SE,135,3.1,3.1,99,0.00,,,0.00,meteobridge,2013-06-05 09:54:00,
2013-06-05 05:59:00,75.4,75.0,29.95,East,90,3.1,3.8,99,0.00,,,0.00,meteobridge,2013-06-05 09:59:00,
2013-06-05 06:04:00,75.4,75.0,29.95,NE,45,3.1,4.5,99,0.00,,,0.00,meteobridge,2013-06-05 10:04:00,
2013-06-05 06:09:00,75.6,75.2,29.94,SSE,158,6.0,6.9,99,0.00,,,0.00,meteobridge,2013-06-05 10:09:00,
2013-06-05 06:14:00,75.4,75.0,29.95,ESE,113,3.8,3.8,99,0.00,,,0.00,meteobridge,2013-06-05 10:14:00,
2013-06-05 06:19:00,75.4,75.0,29.95,South,180,2.2,3.1,99,0.00,,,0.00,meteobridge,2013-06-05 10:19:00,
2013-06-05 06:25:00,75.4,75.0,29.95,SE,135,4.5,4.5,99,0.00,,,0.00,meteobridge,2013-06-05 10:25:00,
2013-06-05 06:30:00,75.4,75.0,29.94,South,180,2.2,3.1,99,0.00,,,0.00,meteobridge,2013-06-05 10:30:00,
2013-06-05 06:35:00,75.4,75.0,29.95,SE,135,3.8,3.8,99,0.00,,,0.00,meteobridge,2013-06-05 10:35:00,
2013-06-05 06:40:00,75.4,75.0,29.95,East,90,3.8,3.8,99,0.00,,,0.00,meteobridge,2013-06-05 10:40:00,
2013-06-05 06:45:00,75.4,75.0,29.95,SE,135,3.1,3.8,99,0.00,,,0.00,meteobridge,2013-06-05 10:45:00,
2013-06-05 06:50:00,75.6,75.2,29.95,East,90,1.6,2.2,99,0.00,,,0.00,meteobridge,2013-06-05 10:50:00,
2013-06-05 06:56:00,75.6,75.2,29.95,East,90,1.6,2.2,99,0.00,,,0.00,meteobridge,2013-06-05 10:56:00,
2013-06-05 07:01:00,75.6,75.2,29.95,East,90,2.2,2.2,99,0.00,,,0.00,meteobridge,2013-06-05 11:01:00,
2013-06-05 07:06:00,75.6,75.2,29.96,East,90,1.6,2.2,99,0.00,,,0.00,meteobridge,2013-06-05 11:06:00,
2013-06-05 07:11:00,75.6,75.2,29.96,East,90,2.2,3.1,99,0.00,,,0.00,meteobridge,2013-06-05 11:11:00,
2013-06-05 07:17:00,75.7,75.4,29.96,East,90,3.1,3.1,99,0.00,,,0.00,meteobridge,2013-06-05 11:17:00,
2013-06-05 07:22:00,75.7,75.4,29.96,NE,45,1.6,2.2,99,0.00,,,0.00,meteobridge,2013-06-05 11:22:00,
2013-06-05 07:27:00,75.7,75.4,29.96,East,90,2.2,2.2,99,0.00,,,0.00,meteobridge,2013-06-05 11:27:00,
2013-06-05 07:32:00,75.9,75.6,29.96,SSE,158,1.6,2.2,99,0.00,,,0.00,meteobridge,2013-06-05 11:32:00,
2013-06-05 07:37:00,75.9,75.6,29.97,NE,45,2.2,3.1,99,0.00,,,0.00,meteobridge,2013-06-05 11:37:00,
2013-06-05 07:42:00,76.1,75.7,29.97,East,90,2.2,3.1,99,0.00,,,0.00,meteobridge,2013-06-05 11:42:00,
2013-06-05 07:47:00,76.1,75.7,29.97,East,90,3.1,3.1,99,0.00,,,0.00,meteobridge,2013-06-05 11:47:00,
2013-06-05 07:53:00,76.3,75.9,29.97,East,90,2.2,3.8,99,0.00,,,0.00,meteobridge,2013-06-05 11:53:00,
2013-06-05 07:58:00,76.5,76.1,29.97,East,90,2.2,2.2,99,0.00,,,0.00,meteobridge,2013-06-05 11:58:00,
2013-06-05 08:03:00,76.5,76.1,29.97,East,90,3.8,3.8,99,0.00,,,0.00,meteobridge,2013-06-05 12:03:00,
2013-06-05 08:08:00,76.8,76.5,29.98,East,90,2.2,3.1,99,0.00,,,0.00,meteobridge,2013-06-05 12:08:00,
2013-06-05 08:13:00,76.8,76.5,29.98,ESE,113,3.8,3.8,99,0.00,,,0.00,meteobridge,2013-06-05 12:13:00,
2013-06-05 08:18:00,77.0,76.6,29.98,East,90,3.1,3.1,99,0.00,,,0.00,meteobridge,2013-06-05 12:18:00,
2013-06-05 08:24:00,77.2,76.8,29.98,East,90,5.4,5.4,99,0.00,,,0.00,meteobridge,2013-06-05 12:24:00,
2013-06-05 08:29:00,77.4,77.0,29.98,East,90,5.4,5.4,99,0.00,,,0.00,meteobridge,2013-06-05 12:29:00,
2013-06-05 08:34:00,77.7,77.4,29.98,East,90,3.8,4.5,99,0.00,,,0.00,meteobridge,2013-06-05 12:34:00,
2013-06-05 08:39:00,77.7,77.4,29.98,SE,135,3.8,8.3,99,0.00,,,0.00,meteobridge,2013-06-05 12:39:00,
2013-06-05 08:44:00,77.9,77.5,29.98,South,180,8.3,9.2,99,0.00,,,0.00,meteobridge,2013-06-05 12:44:00,
2013-06-05 08:49:00,78.1,77.7,29.98,SE,135,5.4,8.3,99,0.00,,,0.00,meteobridge,2013-06-05 12:49:00,
2013-06-05 08:55:00,78.4,78.1,29.98,East,90,6.0,6.0,99,0.00,,,0.00,meteobridge,2013-06-05 12:55:00,
2013-06-05 09:00:00,78.6,78.3,29.98,SE,135,3.1,4.5,99,0.00,,,0.00,meteobridge,2013-06-05 13:00:00,
2013-06-05 09:05:00,78.8,78.4,29.98,East,90,6.0,6.0,99,0.00,,,0.00,meteobridge,2013-06-05 13:05:00,
2013-06-05 09:10:00,79.0,78.6,29.98,East,90,8.3,8.3,99,0.00,,,0.00,meteobridge,2013-06-05 13:10:00,
2013-06-05 09:15:00,79.2,78.8,29.99,East,90,5.4,9.8,99,0.00,,,0.00,meteobridge,2013-06-05 13:15:00,
2013-06-05 09:20:00,79.3,79.0,29.99,South,180,3.1,3.8,99,0.00,,,0.00,meteobridge,2013-06-05 13:20:00,
2013-06-05 09:26:00,79.5,79.2,29.99,East,90,6.9,7.6,99,0.00,,,0.00,meteobridge,2013-06-05 13:26:00,
2013-06-05 09:31:00,80.1,79.7,29.99,NE,45,9.2,9.2,99,0.00,,,0.00,meteobridge,2013-06-05 13:31:00,
2013-06-05 09:36:00,80.4,80.1,29.99,East,90,6.9,6.9,99,0.00,,,0.00,meteobridge,2013-06-05 13:36:00,
2013-06-05 09:41:00,80.6,79.3,29.99,ESE,113,11.4,11.4,96,0.00,,,0.00,meteobridge,2013-06-05 13:41:00,
2013-06-05 09:46:00,80.8,79.5,29.99,South,180,9.2,10.7,96,0.00,,,0.00,meteobridge,2013-06-05 13:46:00,
2013-06-05 09:51:00,81.0,79.3,30.00,South,180,6.0,10.7,95,0.00,,,0.00,meteobridge,2013-06-05 13:51:00,
2013-06-05 09:57:00,81.3,79.7,30.00,NE,45,7.6,10.7,95,0.00,,,0.00,meteobridge,2013-06-05 13:57:00,
2013-06-05 10:02:00,81.5,78.6,29.99,SE,135,6.9,11.4,91,0.00,,,0.00,meteobridge,2013-06-05 14:02:00,
2013-06-05 10:07:00,81.5,78.6,30.00,SE,135,9.2,9.8,91,0.00,,,0.00,meteobridge,2013-06-05 14:07:00,
2013-06-05 10:12:00,81.7,78.4,30.00,South,180,8.3,9.8,90,0.00,,,0.00,meteobridge,2013-06-05 14:12:00,
2013-06-05 10:17:00,81.7,77.7,30.00,South,180,9.2,13.0,88,0.00,,,0.00,meteobridge,2013-06-05 14:17:00,
2013-06-05 10:22:00,81.7,77.7,30.00,ESE,113,7.6,13.6,88,0.00,,,0.00,meteobridge,2013-06-05 14:22:00,
2013-06-05 10:28:00,81.5,77.5,30.01,NE,45,12.1,12.1,88,0.00,,,0.00,meteobridge,2013-06-05 14:28:00,
2013-06-05 10:33:00,81.3,77.7,30.01,South,180,9.8,10.7,89,0.00,,,0.00,meteobridge,2013-06-05 14:33:00,
2013-06-05 10:38:00,81.5,78.6,30.01,East,90,10.7,10.7,91,0.00,,,0.00,meteobridge,2013-06-05 14:38:00,
2013-06-05 10:43:00,81.5,79.0,30.01,SW,225,6.0,12.1,92,0.00,,,0.00,meteobridge,2013-06-05 14:43:00,
2013-06-05 10:48:00,81.5,78.6,30.00,NE,45,10.7,10.7,91,0.00,,,0.00,meteobridge,2013-06-05 14:48:00,
2013-06-05 10:53:00,81.7,79.2,30.00,East,90,7.6,10.7,92,0.00,,,0.00,meteobridge,2013-06-05 14:53:00,
2013-06-05 10:58:00,81.7,78.8,30.00,SE,135,10.7,10.7,91,0.00,,,0.00,meteobridge,2013-06-05 14:58:00,
2013-06-05 11:04:00,81.3,78.1,30.00,South,180,6.0,13.0,90,0.00,,,0.00,meteobridge,2013-06-05 15:04:00,
2013-06-05 11:09:00,81.1,77.9,30.00,East,90,6.9,9.2,90,0.00,,,0.00,meteobridge,2013-06-05 15:09:00,
2013-06-05 11:14:00,81.1,77.9,30.00,South,180,13.0,13.0,90,0.00,,,0.00,meteobridge,2013-06-05 15:14:00,
2013-06-05 11:19:00,81.1,77.5,30.01,ESE,113,10.7,10.7,89,0.00,,,0.00,meteobridge,2013-06-05 15:19:00,
2013-06-05 11:24:00,81.1,77.2,30.01,East,90,10.7,10.7,88,0.00,,,0.00,meteobridge,2013-06-05 15:24:00,
2013-06-05 11:29:00,81.3,77.4,30.01,East,90,5.4,5.4,88,0.00,,,0.00,meteobridge,2013-06-05 15:29:00,
2013-06-05 11:35:00,81.5,77.2,30.00,South,180,6.0,9.2,87,0.00,,,0.00,meteobridge,2013-06-05 15:35:00,
2013-06-05 11:40:00,81.3,77.4,30.01,East,90,7.6,7.6,88,0.00,,,0.00,meteobridge,2013-06-05 15:40:00,
2013-06-05 11:45:00,81.3,78.1,30.00,SE,135,8.3,8.3,90,0.00,,,0.00,meteobridge,2013-06-05 15:45:00,
2013-06-05 11:50:00,81.3,78.4,30.00,South,180,9.8,9.8,91,0.00,,,0.00,meteobridge,2013-06-05 15:50:00,
2013-06-05 11:55:00,81.3,78.4,30.00,SE,135,7.6,11.4,91,0.00,,,0.00,meteobridge,2013-06-05 15:55:00,
2013-06-05 12:00:00,81.5,79.0,30.00,South,180,11.4,11.4,92,0.00,,,0.00,meteobridge,2013-06-05 16:00:00,
2013-06-05 12:06:00,81.7,78.8,30.00,SE,135,6.9,7.6,91,0.00,,,0.00,meteobridge,2013-06-05 16:06:00,
2013-06-05 12:11:00,81.9,79.0,30.00,East,90,7.6,11.4,91,0.00,,,0.00,meteobridge,2013-06-05 16:11:00,
2013-06-05 12:16:00,81.9,79.3,29.99,East,90,8.3,10.7,92,0.00,,,0.00,meteobridge,2013-06-05 16:16:00,
2013-06-05 12:21:00,82.4,79.5,29.99,South,180,6.9,8.3,91,0.00,,,0.00,meteobridge,2013-06-05 16:21:00,
2013-06-05 12:26:00,82.4,78.1,29.99,ESE,113,10.7,12.1,87,0.00,,,0.00,meteobridge,2013-06-05 16:26:00,
2013-06-05 12:31:00,82.6,76.5,29.99,East,90,6.9,13.6,82,0.00,,,0.00,meteobridge,2013-06-05 16:31:00,
2013-06-05 12:36:00,82.9,76.1,29.98,East,90,10.7,13.6,80,0.00,,,0.00,meteobridge,2013-06-05 16:36:00,
2013-06-05 12:42:00,83.3,75.7,29.98,SE,135,9.2,9.8,78,0.00,,,0.00,meteobridge,2013-06-05 16:42:00,
2013-06-05 12:47:00,83.7,76.5,29.98,SE,135,6.9,9.8,79,0.00,,,0.00,meteobridge,2013-06-05 16:47:00,
2013-06-05 12:52:00,83.7,76.5,29.98,SE,135,12.1,12.1,79,0.00,,,0.00,meteobridge,2013-06-05 16:52:00,
2013-06-05 12:57:00,84.0,77.5,29.98,SSE,158,6.9,9.8,81,0.00,,,0.00,meteobridge,2013-06-05 16:57:00,
2013-06-05 13:02:00,84.0,77.2,29.98,East,90,6.9,10.7,80,0.00,,,0.00,meteobridge,2013-06-05 17:02:00,
2013-06-05 13:07:00,84.0,76.8,29.97,East,90,15.2,15.2,79,0.00,,,0.00,meteobridge,2013-06-05 17:07:00,
2013-06-05 13:12:00,83.8,76.6,29.98,SE,135,8.3,9.8,79,0.00,,,0.00,meteobridge,2013-06-05 17:12:00,
2013-06-05 13:17:00,83.8,75.4,29.98,NE,45,6.9,13.6,76,0.00,,,0.00,meteobridge,2013-06-05 17:17:00,
2013-06-05 13:23:00,84.0,74.8,29.98,East,90,9.8,9.8,74,0.00,,,0.00,meteobridge,2013-06-05 17:23:00,
2013-06-05 13:28:00,84.2,74.7,29.98,SE,135,11.4,13.6,73,0.00,,,0.00,meteobridge,2013-06-05 17:28:00,
2013-06-05 13:33:00,84.2,75.0,29.97,SE,135,11.4,14.5,74,0.00,,,0.00,meteobridge,2013-06-05 17:33:00,
2013-06-05 13:38:00,84.0,74.8,29.98,East,90,10.7,13.6,74,0.00,,,0.00,meteobridge,2013-06-05 17:38:00,
2013-06-05 13:43:00,84.0,74.5,29.98,East,90,12.1,12.1,73,0.00,,,0.00,meteobridge,2013-06-05 17:43:00,
2013-06-05 13:48:00,83.8,75.0,29.98,South,180,13.6,13.6,75,0.00,,,0.00,meteobridge,2013-06-05 17:48:00,
2013-06-05 13:54:00,83.5,75.0,29.98,East,90,8.3,10.7,76,0.00,,,0.00,meteobridge,2013-06-05 17:54:00,
2013-06-05 13:59:00,83.3,75.4,29.98,East,90,7.6,8.3,77,0.00,,,0.00,meteobridge,2013-06-05 17:59:00,
2013-06-05 14:04:00,83.3,74.5,29.97,South,180,9.8,11.4,75,0.00,,,0.00,meteobridge,2013-06-05 18:04:00,
2013-06-05 14:09:00,83.1,75.2,29.97,East,90,9.8,9.8,77,0.00,,,0.00,meteobridge,2013-06-05 18:09:00,
2013-06-05 14:14:00,83.1,75.6,29.97,SSW,203,12.1,12.1,78,0.00,,,0.00,meteobridge,2013-06-05 18:14:00,
2013-06-05 14:19:00,82.9,75.4,29.97,ESE,113,8.3,9.2,78,0.00,,,0.00,meteobridge,2013-06-05 18:19:00,
2013-06-05 14:25:00,82.8,75.2,29.97,East,90,6.9,12.1,78,0.00,,,0.00,meteobridge,2013-06-05 18:25:00,
2013-06-05 14:30:00,82.6,75.0,29.97,West,270,7.6,13.0,78,0.00,,,0.00,meteobridge,2013-06-05 18:30:00,
2013-06-05 14:35:00,82.6,75.4,29.97,East,90,9.2,9.2,79,0.00,,,0.00,meteobridge,2013-06-05 18:35:00,
2013-06-05 14:40:00,82.4,75.2,29.97,ESE,113,7.6,8.3,79,0.00,,,0.00,meteobridge,2013-06-05 18:40:00,
2013-06-05 14:45:00,82.2,75.4,29.97,East,90,12.1,13.0,80,0.00,,,0.00,meteobridge,2013-06-05 18:45:00,
2013-06-05 14:50:00,82.0,75.9,29.97,South,180,8.3,11.4,82,0.00,,,0.00,meteobridge,2013-06-05 18:50:00,
2013-06-05 14:56:00,81.9,76.5,29.97,East,90,6.9,9.2,84,0.00,,,0.00,meteobridge,2013-06-05 18:56:00,
2013-06-05 15:01:00,81.7,76.3,29.97,South,180,7.6,7.6,84,0.00,,,0.00,meteobridge,2013-06-05 19:01:00,
2013-06-05 15:06:00,81.7,75.6,29.97,South,180,14.5,14.5,82,0.00,,,0.00,meteobridge,2013-06-05 19:06:00,
2013-06-05 15:11:00,81.7,75.6,29.97,South,180,12.1,15.9,82,0.00,,,0.00,meteobridge,2013-06-05 19:11:00,
2013-06-05 15:16:00,81.5,76.5,29.97,South,180,7.6,8.3,85,0.00,,,0.00,meteobridge,2013-06-05 19:16:00,
2013-06-05 15:22:00,81.3,76.5,29.96,East,90,7.6,11.4,85,0.00,,,0.00,meteobridge,2013-06-05 19:22:00,
2013-06-05 15:27:00,81.3,76.5,29.96,SE,135,7.6,7.6,85,0.00,,,0.00,meteobridge,2013-06-05 19:27:00,
2013-06-05 15:32:00,81.1,76.3,29.96,SE,135,6.9,14.5,85,0.00,,,0.00,meteobridge,2013-06-05 19:32:00,
2013-06-05 15:37:00,80.8,75.9,29.96,SSW,203,7.6,9.2,85,0.00,,,0.00,meteobridge,2013-06-05 19:37:00,
2013-06-05 15:42:00,80.8,76.3,29.96,East,90,6.9,11.4,86,0.00,,,0.00,meteobridge,2013-06-05 19:42:00,
2013-06-05 15:47:00,80.8,76.5,29.95,East,90,6.9,7.6,87,0.00,,,0.00,meteobridge,2013-06-05 19:47:00,
2013-06-05 15:53:00,80.4,76.1,29.95,South,180,6.9,9.2,87,0.00,,,0.00,meteobridge,2013-06-05 19:53:00,
2013-06-05 15:58:00,80.2,75.7,29.95,East,90,9.2,13.6,86,0.00,,,0.00,meteobridge,2013-06-05 19:58:00,
2013-06-05 16:03:00,80.1,74.8,29.95,NW,315,9.2,11.4,84,0.00,,,0.00,meteobridge,2013-06-05 20:03:00,
2013-06-05 16:08:00,80.1,74.5,29.94,East,90,11.4,11.4,83,0.00,,,0.00,meteobridge,2013-06-05 20:08:00,
2013-06-05 16:13:00,80.1,74.1,29.95,South,180,8.3,9.8,82,0.00,,,0.00,meteobridge,2013-06-05 20:13:00,
2013-06-05 16:18:00,79.9,74.7,29.95,South,180,3.8,10.7,84,0.00,,,0.00,meteobridge,2013-06-05 20:18:00,
2013-06-05 16:24:00,79.9,75.0,29.94,NE,45,6.0,7.6,85,0.00,,,0.00,meteobridge,2013-06-05 20:24:00,
2013-06-05 16:29:00,79.7,74.8,29.94,SE,135,8.3,8.3,85,0.00,,,0.00,meteobridge,2013-06-05 20:29:00,
2013-06-05 16:34:00,79.5,75.6,29.94,East,90,3.8,6.0,88,0.00,,,0.00,meteobridge,2013-06-05 20:34:00,
2013-06-05 16:39:00,79.5,75.9,29.94,SE,135,3.8,5.4,89,0.00,,,0.00,meteobridge,2013-06-05 20:39:00,
2013-06-05 16:44:00,79.3,76.5,29.93,SE,135,3.1,6.0,91,0.00,,,0.00,meteobridge,2013-06-05 20:44:00,
2013-06-05 16:49:00,79.3,76.8,29.93,SE,135,7.6,7.6,92,0.00,,,0.00,meteobridge,2013-06-05 20:49:00,
2013-06-05 16:54:00,79.3,77.2,29.93,SE,135,4.5,5.4,93,0.00,,,0.00,meteobridge,2013-06-05 20:54:00,
2013-06-05 17:00:00,79.2,75.0,29.93,East,90,8.3,11.4,87,0.00,,,0.00,meteobridge,2013-06-05 21:00:00,
2013-06-05 17:05:00,79.0,75.2,29.93,SE,135,6.0,8.3,88,0.00,,,0.00,meteobridge,2013-06-05 21:05:00,
2013-06-05 17:10:00,78.8,75.2,29.93,South,180,6.0,6.9,89,0.00,,,0.00,meteobridge,2013-06-05 21:10:00,
2013-06-05 17:15:00,78.6,75.4,29.93,NW,315,3.8,5.4,90,0.00,,,0.00,meteobridge,2013-06-05 21:15:00,
2013-06-05 17:20:00,78.6,76.1,29.92,East,90,3.8,5.4,92,0.00,,,0.00,meteobridge,2013-06-05 21:20:00,
2013-06-05 17:25:00,78.6,76.1,29.92,East,90,6.0,6.0,92,0.00,,,0.00,meteobridge,2013-06-05 21:25:00,
2013-06-05 17:31:00,78.4,76.3,29.92,East,90,4.5,4.5,93,0.00,,,0.00,meteobridge,2013-06-05 21:31:00,
2013-06-05 17:36:00,78.4,76.6,29.92,NE,45,3.1,6.0,94,0.00,,,0.00,meteobridge,2013-06-05 21:36:00,
2013-06-05 17:41:00,78.4,76.8,29.91,East,90,4.5,6.0,95,0.00,,,0.00,meteobridge,2013-06-05 21:41:00,
2013-06-05 17:46:00,78.3,77.0,29.91,SE,135,4.5,6.9,96,0.00,,,0.00,meteobridge,2013-06-05 21:46:00,
2013-06-05 17:51:00,78.3,77.4,29.91,East,90,2.2,6.0,97,0.00,,,0.00,meteobridge,2013-06-05 21:51:00,
2013-06-05 17:56:00,78.1,77.5,29.91,East,90,3.8,3.8,98,0.00,,,0.00,meteobridge,2013-06-05 21:56:00,
2013-06-05 18:01:00,77.9,77.5,29.90,East,90,3.1,4.5,99,0.00,,,0.00,meteobridge,2013-06-05 22:01:00,
2013-06-05 18:07:00,77.9,77.5,29.91,East,90,3.8,7.6,99,0.00,,,0.00,meteobridge,2013-06-05 22:07:00,
2013-06-05 18:12:00,77.9,77.5,29.90,East,90,4.5,5.4,99,0.00,,,0.00,meteobridge,2013-06-05 22:12:00,
2013-06-05 18:17:00,77.9,77.5,29.90,ESE,113,5.4,6.0,99,0.00,,,0.00,meteobridge,2013-06-05 22:17:00,
2013-06-05 18:22:00,77.9,77.5,29.91,East,90,5.4,5.4,99,0.00,,,0.00,meteobridge,2013-06-05 22:22:00,
2013-06-05 18:27:00,77.9,77.5,29.90,SE,135,3.8,6.0,99,0.00,,,0.00,meteobridge,2013-06-05 22:27:00,
2013-06-05 18:32:00,77.9,77.5,29.91,SE,135,4.5,5.4,99,0.00,,,0.00,meteobridge,2013-06-05 22:32:00,
2013-06-05 18:38:00,77.9,77.5,29.90,NE,45,6.0,6.0,99,0.00,,,0.00,meteobridge,2013-06-05 22:38:00,
2013-06-05 18:43:00,77.9,77.5,29.90,East,90,4.5,4.5,99,0.00,,,0.00,meteobridge,2013-06-05 22:43:00,
2013-06-05 18:48:00,77.9,77.5,29.90,East,90,5.4,5.4,99,0.00,,,0.00,meteobridge,2013-06-05 22:48:00,
2013-06-05 18:53:00,77.9,77.5,29.90,ESE,113,2.2,3.8,99,0.00,,,0.00,meteobridge,2013-06-05 22:53:00,
2013-06-05 18:58:00,77.9,77.5,29.91,NE,45,3.1,3.8,99,0.00,,,0.00,meteobridge,2013-06-05 22:58:00,
2013-06-05 19:03:00,77.9,77.5,29.90,NE,45,3.1,4.5,99,0.00,,,0.00,meteobridge,2013-06-05 23:03:00,
2013-06-05 19:09:00,77.9,77.5,29.91,East,90,4.5,5.4,99,0.00,,,0.00,meteobridge,2013-06-05 23:09:00,
2013-06-05 19:14:00,77.9,77.5,29.91,East,90,3.1,3.1,99,0.00,,,0.00,meteobridge,2013-06-05 23:14:00,
2013-06-05 19:19:00,77.9,77.5,29.91,ENE,68,4.5,5.4,99,0.00,,,0.00,meteobridge,2013-06-05 23:19:00,
2013-06-05 19:24:00,77.9,77.5,29.91,East,90,4.5,5.4,99,0.00,,,0.00,meteobridge,2013-06-05 23:24:00,
2013-06-05 19:29:00,77.9,77.5,29.91,SE,135,3.1,3.1,99,0.00,,,0.00,meteobridge,2013-06-05 23:29:00,
2013-06-05 19:34:00,77.9,77.5,29.91,East,90,5.4,6.0,99,0.00,,,0.00,meteobridge,2013-06-05 23:34:00,
2013-06-05 19:39:00,77.9,77.5,29.91,East,90,5.4,7.6,99,0.00,,,0.00,meteobridge,2013-06-05 23:39:00,
2013-06-05 19:45:00,77.9,77.5,29.91,East,90,6.0,6.0,99,0.00,,,0.00,meteobridge,2013-06-05 23:45:00,
2013-06-05 19:50:00,77.7,77.4,29.91,East,90,3.8,4.5,99,0.00,,,0.00,meteobridge,2013-06-05 23:50:00,
2013-06-05 19:55:00,77.7,77.4,29.91,NE,45,3.8,4.5,99,0.00,,,0.00,meteobridge,2013-06-05 23:55:00,
2013-06-05 20:00:00,77.7,77.4,29.92,East,90,4.5,4.5,99,0.00,,,0.00,meteobridge,2013-06-06 00:00:00,
2013-06-05 20:05:00,77.5,77.2,29.92,East,90,4.5,5.4,99,0.00,,,0.00,meteobridge,2013-06-06 00:05:00,
2013-06-05 20:10:00,77.5,77.2,29.92,East,90,5.4,5.4,99,0.00,,,0.00,meteobridge,2013-06-06 00:10:00,
2013-06-05 20:16:00,77.4,77.0,29.92,East,90,5.4,6.0,99,0.00,,,0.00,meteobridge,2013-06-06 00:16:00,
2013-06-05 20:21:00,77.2,76.8,29.92,NE,45,5.4,5.4,99,0.01,,,0.01,meteobridge,2013-06-06 00:21:00,
2013-06-05 20:26:00,77.0,76.6,29.93,East,90,4.5,4.5,99,0.01,,,0.01,meteobridge,2013-06-06 00:26:00,
2013-06-05 20:31:00,77.0,76.6,29.93,East,90,3.8,5.4,99,0.01,,,0.01,meteobridge,2013-06-06 00:31:00,
2013-06-05 20:36:00,76.8,76.5,29.93,East,90,3.8,6.0,99,0.01,,,0.01,meteobridge,2013-06-06 00:36:00,
2013-06-05 20:41:00,76.6,76.3,29.93,SE,135,3.8,6.0,99,0.02,,,0.02,meteobridge,2013-06-06 00:41:00,
2013-06-05 20:46:00,76.5,76.1,29.93,East,90,3.8,4.5,99,0.02,,,0.02,meteobridge,2013-06-06 00:46:00,
2013-06-05 20:52:00,76.3,75.9,29.93,East,90,7.6,7.6,99,0.04,,,0.04,meteobridge,2013-06-06 00:52:00,
2013-06-05 20:57:00,76.1,75.7,29.92,East,90,6.0,8.3,99,0.05,,,0.05,meteobridge,2013-06-06 00:57:00,
2013-06-05 21:02:00,75.7,75.4,29.92,South,180,9.2,9.2,99,0.06,,,0.06,meteobridge,2013-06-06 01:02:00,
2013-06-05 21:07:00,75.6,75.2,29.92,East,90,6.9,6.9,99,0.07,,,0.07,meteobridge,2013-06-06 01:07:00,
2013-06-05 21:12:00,75.4,75.0,29.92,ESE,113,3.8,3.8,99,0.07,,,0.07,meteobridge,2013-06-06 01:12:00,
2013-06-05 21:17:00,75.2,74.8,29.92,East,90,6.0,8.3,99,0.06,,,0.07,meteobridge,2013-06-06 01:17:00,
2013-06-05 21:23:00,75.0,74.7,29.92,East,90,5.4,6.0,99,0.06,,,0.07,meteobridge,2013-06-06 01:23:00,
2013-06-05 21:28:00,74.8,74.5,29.92,East,90,7.6,9.8,99,0.07,,,0.08,meteobridge,2013-06-06 01:28:00,
2013-06-05 21:33:00,74.8,74.5,29.91,NE,45,6.9,7.6,99,0.07,,,0.08,meteobridge,2013-06-06 01:33:00,
2013-06-05 21:38:00,74.7,74.3,29.91,East,90,3.8,6.0,99,0.06,,,0.08,meteobridge,2013-06-06 01:38:00,
2013-06-05 21:43:00,74.5,74.1,29.92,NE,45,5.4,5.4,99,0.07,,,0.09,meteobridge,2013-06-06 01:43:00,
2013-06-05 21:48:00,74.5,74.1,29.92,East,90,8.3,8.3,99,0.06,,,0.09,meteobridge,2013-06-06 01:48:00,
2013-06-05 21:53:00,74.5,74.1,29.92,NE,45,4.5,7.6,99,0.05,,,0.09,meteobridge,2013-06-06 01:53:00,
2013-06-05 21:59:00,74.5,74.1,29.92,ENE,68,6.0,8.3,99,0.04,,,0.09,meteobridge,2013-06-06 01:59:00,
2013-06-05 22:04:00,74.5,74.1,29.92,East,90,5.4,7.6,99,0.04,,,0.09,meteobridge,2013-06-06 02:04:00,
2013-06-05 22:09:00,74.5,74.1,29.92,East,90,9.8,9.8,99,0.02,,,0.09,meteobridge,2013-06-06 02:09:00,
2013-06-05 22:14:00,74.5,74.1,29.92,East,90,7.6,7.6,99,0.02,,,0.09,meteobridge,2013-06-06 02:14:00,
2013-06-05 22:19:00,74.5,74.1,29.91,NE,45,5.4,6.0,99,0.02,,,0.09,meteobridge,2013-06-06 02:19:00,
2013-06-05 22:24:00,74.5,74.1,29.92,East,90,7.6,7.6,99,0.01,,,0.09,meteobridge,2013-06-06 02:24:00,
2013-06-05 22:30:00,74.5,74.1,29.91,East,90,6.9,6.9,99,0.02,,,0.11,meteobridge,2013-06-06 02:30:00,
2013-06-05 22:35:00,74.5,74.1,29.91,SE,135,4.5,9.2,99,0.02,,,0.11,meteobridge,2013-06-06 02:35:00,
2013-06-05 22:40:00,74.5,74.1,29.91,East,90,7.6,9.2,99,0.02,,,0.12,meteobridge,2013-06-06 02:40:00,
2013-06-05 22:45:00,74.5,74.1,29.91,East,90,4.5,9.2,99,0.02,,,0.12,meteobridge,2013-06-06 02:45:00,
2013-06-05 22:50:00,74.5,74.1,29.91,East,90,6.0,9.2,99,0.04,,,0.13,meteobridge,2013-06-06 02:50:00,
2013-06-05 22:55:00,74.5,74.1,29.91,ESE,113,9.2,9.2,99,0.04,,,0.13,meteobridge,2013-06-06 02:55:00,
2013-06-05 23:01:00,74.7,74.3,29.91,East,90,6.9,9.2,99,0.04,,,0.13,meteobridge,2013-06-06 03:01:00,
2013-06-05 23:06:00,74.7,74.3,29.91,East,90,11.4,11.4,99,0.05,,,0.14,meteobridge,2013-06-06 03:06:00,
2013-06-05 23:11:00,74.8,74.5,29.91,East,90,6.9,9.8,99,0.05,,,0.14,meteobridge,2013-06-06 03:11:00,
2013-06-05 23:16:00,75.0,74.7,29.91,East,90,9.2,9.2,99,0.05,,,0.14,meteobridge,2013-06-06 03:16:00,
2013-06-05 23:21:00,75.0,74.7,29.92,East,90,9.8,10.7,99,0.06,,,0.15,meteobridge,2013-06-06 03:21:00,
2013-06-05 23:26:00,75.0,74.7,29.91,ESE,113,7.6,7.6,99,0.06,,,0.15,meteobridge,2013-06-06 03:26:00,
2013-06-05 23:31:00,75.2,74.8,29.91,East,90,7.6,7.6,99,0.06,,,0.17,meteobridge,2013-06-06 03:31:00,
2013-06-05 23:37:00,75.2,74.8,29.91,East,90,6.9,7.6,99,0.05,,,0.17,meteobridge,2013-06-06 03:37:00,
2013-06-05 23:42:00,75.2,74.8,29.91,East,90,4.5,9.2,99,0.05,,,0.17,meteobridge,2013-06-06 03:42:00,
2013-06-05 23:47:00,75.4,75.0,29.91,East,90,6.9,7.6,99,0.05,,,0.18,meteobridge,2013-06-06 03:47:00,
2013-06-05 23:52:00,75.2,74.8,29.91,NE,45,9.2,9.2,99,0.05,,,0.18,meteobridge,2013-06-06 03:52:00,
2013-06-05 23:57:00,75.4,75.0,29.91,NE,45,6.0,8.3,99,0.06,,,0.19,meteobridge,2013-06-06 03:57:00,